Rome, GA

9:49 AM EST on November 17, 2019 (GMT -0500)
Russell

Weather History for KRMG - October, 2019

Change the Weather History Date:

Tuesday, October 15, 2019

  Actual Average Record
Temperature  
Mean Temperature 68 °F 61 °F  
Max Temperature 75 °F 74 °F 84 °F (2005)
Min Temperature 60 °F 49 °F 30 °F (2006)
Degree Days  
Heating Degree Days 0 5  
Month to date heating degree days 48  
Since 1 July heating degree days 62  
Cooling Degree Days 2 1  
Month to date cooling degree days 31  
Year to date cooling degree days 1621  
Growing Degree Days 18 (Base 50)    
Moisture  
Dew Point 56 °F    
Average Humidity 70    
Maximum Humidity 94    
Minimum Humidity 51    
Precipitation  
Precipitation 0.09 in 0.13 in 0.93 in (2002)
Month to date precipitation 1.93  
Year to date precipitation 40.76  
Snow  
Snow - - - ()
Month to date snowfall  
Since 1 July snowfall  
Since 1 September snowfall  
Snow Depth -    
Sea Level Pressure  
Sea Level Pressure 30.00 in    
Wind  
Wind Speed 2 mph ()    
Max Wind Speed 15 mph    
Max Gust Speed -    
Visibility 9.2 miles    
Events Rain    
T = Trace of Precipitation, MM = Missing Value Source: Averaged Metar Reports

Daily Weather History Graph

Daily Weather History Graph

Search for Another Location

Airport or City:

Astronomy

Oct. 15, 2019 Rise Set
Actual Time 7:45 AM EDT 7:06 PM EDT
Civil Twilight 7:20 AM EDT 7:31 PM EDT
Nautical Twilight 6:51 AM EDT 8:00 PM EDT
Astronomical Twilight 6:22 AM EDT 8:29 PM EDT
Moon 8:29 PM EDT (10/15) 9:13 AM EDT (10/15)
Length of Visible Light 12h 11m
Length of Day
11h 20m
Full, 97% of the Moon is Illuminated
Oct 15
Full
Oct 21
Last Quarter
Oct 27
New
Nov 4
First Quarter
Nov 12
Full

Hourly Weather History & Observations

Time (EDT) Temp. Dew Point Humidity Pressure Visibility Wind Dir Wind Speed Gust Speed Precip Events Conditions
12:53 AM 61.0 °F 52.0 °F 72% 30.07 in 10.0 mi Calm Calm - N/A   Partly Cloudy
1:53 AM 60.1 °F 52.0 °F 75% 30.07 in 10.0 mi Calm Calm - N/A   Partly Cloudy
2:53 AM 61.0 °F 52.0 °F 72% 30.06 in 10.0 mi ENE 3.5 mph - N/A   Overcast
3:53 AM 62.1 °F 53.1 °F 72% 30.06 in 10.0 mi Calm Calm - N/A   Overcast
4:53 AM 62.1 °F 53.1 °F 72% 30.06 in 10.0 mi Calm Calm - N/A   Overcast
5:53 AM 62.1 °F 52.0 °F 70% 30.06 in 10.0 mi Calm Calm - N/A   Overcast
6:53 AM 63.0 °F 51.1 °F 65% 30.07 in 10.0 mi Calm Calm - N/A   Overcast
7:53 AM 60.1 °F 53.1 °F 78% 30.07 in 10.0 mi Calm Calm - N/A   Overcast
8:53 AM 63.0 °F 52.0 °F 67% 30.07 in 10.0 mi Calm Calm - N/A   Overcast
9:53 AM 64.9 °F 52.0 °F 63% 30.08 in 10.0 mi North 3.5 mph - N/A   Overcast
10:53 AM 70.0 °F 51.1 °F 51% 30.06 in 10.0 mi Variable 3.5 mph - 0.00 in   Partly Cloudy
11:53 AM 73.9 °F 55.0 °F 52% 30.05 in 10.0 mi Variable 3.5 mph - N/A   Overcast
12:53 PM 75.0 °F 55.9 °F 51% 30.04 in 10.0 mi SSE 5.8 mph - N/A   Overcast
1:53 PM 75.0 °F 55.9 °F 51% 30.01 in 10.0 mi SE 6.9 mph - N/A   Overcast
2:39 PM 72.0 °F 59.0 °F 64% 30.01 in 10.0 mi SSE 15.0 mph - N/A   Overcast
2:53 PM 70.0 °F 59.0 °F 68% 30.00 in 10.0 mi SE 11.5 mph - N/A   Overcast
3:53 PM 70.0 °F 59.0 °F 68% 29.98 in 10.0 mi Calm Calm - N/A   Overcast
4:53 PM 70.0 °F 59.0 °F 68% 29.96 in 10.0 mi SE 4.6 mph - N/A   Overcast
5:53 PM 69.1 °F 60.1 °F 73% 29.94 in 10.0 mi SE 4.6 mph - N/A   Overcast
6:53 PM 69.1 °F 59.0 °F 70% 29.93 in 10.0 mi ENE 5.8 mph - N/A   Overcast
7:53 PM 69.1 °F 57.9 °F 68% 29.91 in 10.0 mi SSE 4.6 mph - N/A   Overcast
8:53 PM 68.0 °F 57.9 °F 70% 29.91 in 10.0 mi ESE 5.8 mph - N/A   Overcast
9:53 PM 68.0 °F 59.0 °F 73% 29.92 in 10.0 mi East 6.9 mph - N/A   Overcast
10:53 PM 64.0 °F 61.0 °F 90% 29.92 in 4.0 mi Calm Calm - 0.02 in Rain Light Rain
11:50 PM 64.4 °F 62.6 °F 94% 29.92 in 2.0 mi Calm Calm - 0.07 in Rain Rain
11:53 PM 64.0 °F 62.1 °F 93% 29.90 in 2.0 mi Calm Calm - 0.07 in Rain Light Rain